Weather History for PHOG - September, 2013

Change the Weather History Date:

Saturday, September 14, 2013

  Actual Average Record
Temperature  
Mean Temperature 80 °F 79 °F  
Max Temperature 89 °F 88 °F 96 °F (1997)
Min Temperature 70 °F 70 °F 61 °F (1953)
Degree Days  
Heating Degree Days 0 0  
Month to date heating degree days 0 0  
Since 1 July heating degree days 0 0  
Cooling Degree Days 15 14  
Month to date cooling degree days 218 198  
Year to date cooling degree days 3005 2740  
Growing Degree Days 30 (Base 50)    
Moisture  
Dew Point 69 °F    
Average Humidity 66    
Maximum Humidity 79    
Minimum Humidity 53    
Precipitation  
Precipitation 0.00 in 0.01 in 0.29 in (1960)
Month to date precipitation 0.09 0.16  
Year to date precipitation 8.75 10.86  
Snow  
Snow 0.00 in - - ()
Month to date snowfall 0.0  
Since 1 July snowfall 0.0  
Since 1 September snowfall 0.0  
Snow Depth 0.00 in    
Sea Level Pressure  
Sea Level Pressure 29.92 in    
Wind  
Wind Speed 14 mph (NNE)    
Max Wind Speed 24 mph    
Max Gust Speed 29 mph    
Visibility 10 miles    
Events      
T = Trace of Precipitation, MM = Missing Value Source: NWS Daily Summary

Daily Weather History Graph

Daily Weather History Graph

Search for Another Location

Airport or City:

Trip Planner

Search our weather history database for the weather conditions in past years. The results will help you decide how hot, cold, wet, or windy it might be!

Date:

Astronomy

Sep. 14, 2013 Rise Set
Actual Time 6:12 AM HST 6:29 PM HST
Civil Twilight 5:50 AM HST 6:51 PM HST
Nautical Twilight 5:24 AM HST 7:17 PM HST
Astronomical Twilight 4:58 AM HST 7:43 PM HST
Moon 2:52 PM HST (9/14) 1:26 AM HST (9/14)
Length of Visible Light 13h 00m
Length of Day
12h 16m
Waxing Gibbous, 74% of the Moon is Illuminated
Sep 14
Waxing Gibbous
Sep 19
Full
Sep 26
Last Quarter
Oct 4
New
Oct 11
First Quarter

Hourly Weather History & Observations

Time (HST) Temp. Heat Index Dew Point Humidity Pressure Visibility Wind Dir Wind Speed Gust Speed Precip Events Conditions
12:54 AM 75.9 °F - 68.0 °F 76% 29.93 in 10.0 mi NE 6.9 mph - N/A   Mostly Cloudy
1:54 AM 77.0 °F - 68.0 °F 74% 29.91 in 10.0 mi NE 6.9 mph - N/A   Overcast
2:54 AM 75.0 °F - 68.0 °F 79% 29.90 in 10.0 mi ENE 8.1 mph - N/A   Clear
3:54 AM 75.9 °F - 68.0 °F 76% 29.89 in 10.0 mi NE 8.1 mph - N/A   Partly Cloudy
4:54 AM 75.0 °F - 66.9 °F 76% 29.90 in 10.0 mi NE 10.4 mph - N/A   Clear
5:54 AM 75.0 °F - 64.9 °F 71% 29.91 in 10.0 mi NE 12.7 mph - N/A   Clear
6:54 AM 75.9 °F - 64.9 °F 69% 29.91 in 10.0 mi NNE 9.2 mph - N/A   Clear
7:54 AM 75.9 °F - 64.0 °F 67% 29.92 in 10.0 mi East 8.1 mph - N/A   Partly Cloudy
8:54 AM 84.9 °F 87.6 °F 66.9 °F 55% 29.93 in 10.0 mi NNE 17.3 mph - N/A   Partly Cloudy
9:54 AM 87.1 °F 90.6 °F 68.0 °F 53% 29.94 in 10.0 mi NNE 19.6 mph - N/A   Partly Cloudy
10:54 AM 87.1 °F 92.8 °F 71.1 °F 59% 29.94 in 10.0 mi NE 20.7 mph - N/A   Scattered Clouds
11:54 AM 84.9 °F 89.4 °F 70.0 °F 61% 29.93 in 10.0 mi NE 23.0 mph - N/A   Scattered Clouds
12:54 PM 86.0 °F 90.7 °F 70.0 °F 59% 29.91 in 10.0 mi NNE 20.7 mph - N/A   Scattered Clouds
1:54 PM 86.0 °F 90.7 °F 70.0 °F 59% 29.89 in 10.0 mi NNE 19.6 mph - N/A   Scattered Clouds
2:54 PM 84.0 °F 89.0 °F 71.1 °F 65% 29.88 in 10.0 mi NNE 18.4 mph 23.0 mph N/A   Mostly Cloudy
3:54 PM 84.9 °F 90.7 °F 72.0 °F 65% 29.89 in 10.0 mi NNE 15.0 mph - N/A   Scattered Clouds
4:54 PM 84.0 °F 89.6 °F 72.0 °F 67% 29.90 in 10.0 mi NNE 13.8 mph - N/A   Scattered Clouds
5:54 PM 81.0 °F 85.2 °F 72.0 °F 74% 29.92 in 10.0 mi North 10.4 mph - N/A   Scattered Clouds
6:54 PM 80.1 °F 83.6 °F 71.1 °F 74% 29.93 in 10.0 mi NNE 8.1 mph - N/A   Scattered Clouds
7:54 PM 80.1 °F 83.8 °F 72.0 °F 76% 29.95 in 10.0 mi North 6.9 mph - N/A   Mostly Cloudy
8:54 PM 79.0 °F - 72.0 °F 79% 29.96 in 10.0 mi North 6.9 mph - N/A   Partly Cloudy
9:54 PM 78.1 °F - 71.1 °F 79% 29.97 in 10.0 mi East 4.6 mph - N/A   Mostly Cloudy
10:54 PM 78.1 °F - 72.0 °F 81% 29.96 in 10.0 mi NNW 3.5 mph - N/A   Mostly Cloudy
11:03 PM 78.8 °F - 71.6 °F 78% 29.95 in 10.0 mi NNW 3.5 mph - N/A   Mostly Cloudy
11:46 PM 78.8 °F - 71.6 °F 78% 29.93 in 10.0 mi North 5.8 mph - 0.00 in   Overcast
11:54 PM 78.1 °F - 72.0 °F 81% 29.95 in 10.0 mi North 6.9 mph - 0.00 in   Mostly Cloudy